Location: Reutlingen
(48.4911°N, 9.2587°E)
Time: 00:56:13
(UTC+01:00)

ISS - Pass Details

Date: 18 November 2017
Orbit: 402 x 407 km, 51.6° (Epoch: 24 November)

Event Time Altitude Azimuth Distance (km) Brightness Sun altitude
Exits shadow 05:31:15 13° 185° (S) 1,308 -1.3 -20.3°
Drops below altitude 10° 05:31:48 10° 178° (S) 1,448 -0.9 -20.2°
Sets 05:34:19 0° 157° (SSE) 2,302 0.4 -19.8°
